TimeCDT,TemperatureF,Dew PointF,Humidity,Sea Level PressureIn,VisibilityMPH,Wind Direction,Wind SpeedMPH,Gust SpeedMPH,PrecipitationIn,Events,Conditions,WindDirDegrees,DateUTC
12:15 AM,62.6,23.2,22,29.78,10.0,West,3.5,-,N/A,,Clear,270,2013-05-20 05:15:00
12:35 AM,64.9,24.8,22,29.78,10.0,WNW,4.6,-,N/A,,Clear,290,2013-05-20 05:35:00
12:55 AM,61.2,24.8,25,29.78,10.0,West,3.5,-,N/A,,Clear,280,2013-05-20 05:55:00
1:15 AM,59.9,23.9,25,29.78,10.0,Calm,Calm,-,N/A,,Clear,0,2013-05-20 06:15:00
1:35 AM,61.2,25.0,25,29.78,10.0,WSW,4.6,-,N/A,,Clear,250,2013-05-20 06:35:00
1:55 AM,59.9,27.7,29,29.78,10.0,West,5.8,-,N/A,,Clear,260,2013-05-20 06:55:00
2:15 AM,57.2,28.2,33,29.77,10.0,West,6.9,-,N/A,,Clear,280,2013-05-20 07:15:00
2:35 AM,57.4,27.5,32,29.77,10.0,Calm,Calm,-,N/A,,Clear,0,2013-05-20 07:35:00
3:15 AM,54.9,25.5,32,29.76,10.0,WSW,3.5,-,N/A,,Clear,240,2013-05-20 08:15:00
3:35 AM,54.9,27.0,34,29.76,10.0,West,4.6,-,N/A,,Clear,260,2013-05-20 08:35:00
3:55 AM,54.9,26.8,34,29.77,10.0,West,4.6,-,N/A,,Clear,270,2013-05-20 08:55:00
4:35 AM,52.3,27.1,38,29.77,10.0,Calm,Calm,-,N/A,,Clear,0,2013-05-20 09:35:00
4:55 AM,54.7,28.4,36,29.78,10.0,West,6.9,-,N/A,,Clear,280,2013-05-20 09:55:00
5:15 AM,52.0,30.4,44,29.78,10.0,WNW,6.9,-,N/A,,Clear,300,2013-05-20 10:15:00
5:35 AM,50.0,30.6,47,29.78,10.0,West,6.9,-,N/A,,Clear,280,2013-05-20 10:35:00
5:55 AM,50.0,31.8,50,29.79,10.0,West,5.8,-,N/A,,Clear,280,2013-05-20 10:55:00
6:15 AM,50.0,31.1,48,29.79,10.0,WNW,8.1,-,N/A,,Clear,290,2013-05-20 11:15:00
6:35 AM,50.0,30.6,47,29.81,10.0,East,3.5,-,N/A,,Clear,100,2013-05-20 11:35:00
7:15 AM,52.7,32.5,46,29.82,10.0,NW,5.8,-,N/A,,Clear,310,2013-05-20 12:15:00
7:35 AM,54.9,34.7,47,29.83,10.0,Calm,Calm,-,N/A,,Clear,0,2013-05-20 12:35:00
7:55 AM,59.0,33.6,38,29.83,10.0,NW,6.9,-,N/A,,Clear,320,2013-05-20 12:55:00
8:15 AM,62.4,31.5,31,29.84,10.0,North,4.6,-,N/A,,Clear,360,2013-05-20 13:15:00
8:35 AM,67.5,32.0,27,29.84,10.0,North,8.1,-,N/A,,Clear,360,2013-05-20 13:35:00
9:15 AM,72.1,32.4,23,29.85,10.0,North,11.5,-,N/A,,Clear,350,2013-05-20 14:15:00
9:35 AM,75.2,34.0,22,29.85,10.0,North,6.9,-,N/A,,Clear,350,2013-05-20 14:35:00
9:55 AM,75.2,33.3,22,29.85,10.0,North,9.2,-,N/A,,Clear,360,2013-05-20 14:55:00
10:35 AM,75.9,31.8,20,29.85,10.0,NW,4.6,-,N/A,,Clear,320,2013-05-20 15:35:00
10:55 AM,77.5,32.5,19,29.84,10.0,West,9.2,-,N/A,,Clear,280,2013-05-20 15:55:00
11:15 AM,79.9,32.2,18,29.84,10.0,WNW,11.5,-,N/A,,Clear,300,2013-05-20 16:15:00
11:35 AM,80.1,30.7,17,29.84,10.0,WNW,12.7,-,N/A,,Clear,290,2013-05-20 16:35:00
11:55 AM,81.1,31.3,16,29.84,10.0,West,15.0,23.0,N/A,,Clear,280,2013-05-20 16:55:00
12:15 PM,81.5,30.7,16,29.83,10.0,WNW,15.0,23.0,N/A,,Clear,290,2013-05-20 17:15:00
12:35 PM,81.7,29.8,15,29.83,10.0,West,16.1,25.3,N/A,,Clear,270,2013-05-20 17:35:00
12:55 PM,82.6,30.4,15,29.81,10.0,WNW,13.8,20.7,N/A,,Clear,290,2013-05-20 17:55:00
1:15 PM,83.1,28.9,14,29.81,10.0,West,11.5,21.9,N/A,,Clear,280,2013-05-20 18:15:00
1:55 PM,85.5,27.5,12,29.80,10.0,West,20.7,27.6,N/A,,Clear,260,2013-05-20 18:55:00
2:15 PM,85.3,27.9,12,29.80,10.0,West,19.6,-,N/A,,Clear,280,2013-05-20 19:15:00
2:35 PM,87.1,25.9,11,29.80,10.0,West,24.2,32.2,N/A,,Clear,260,2013-05-20 19:35:00
2:55 PM,85.6,23.4,10,29.80,10.0,West,26.5,33.4,N/A,,Clear,260,2013-05-20 19:55:00
3:15 PM,87.8,24.8,10,29.79,10.0,West,21.9,29.9,N/A,,Clear,260,2013-05-20 20:15:00
3:35 PM,86.2,23.7,10,29.78,10.0,West,12.7,26.5,N/A,,Clear,260,2013-05-20 20:35:00
3:55 PM,86.5,23.0,10,29.78,10.0,West,18.4,24.2,N/A,,Clear,260,2013-05-20 20:55:00
4:15 PM,87.8,24.1,10,29.77,10.0,WNW,13.8,26.5,N/A,,Clear,300,2013-05-20 21:15:00
4:35 PM,88.7,21.7,9,29.77,10.0,WSW,13.8,24.2,N/A,,Clear,250,2013-05-20 21:35:00
4:55 PM,90.0,22.6,9,29.76,10.0,West,20.7,25.3,N/A,,Clear,260,2013-05-20 21:55:00
5:15 PM,90.1,22.3,8,29.75,10.0,West,23.0,26.5,N/A,,Clear,260,2013-05-20 22:15:00
5:35 PM,89.2,19.8,8,29.75,10.0,WNW,17.3,26.5,N/A,,Clear,290,2013-05-20 22:35:00
5:55 PM,87.8,17.1,7,29.75,10.0,West,17.3,28.8,N/A,,Clear,270,2013-05-20 22:55:00
6:15 PM,88.9,16.5,7,29.75,10.0,West,20.7,25.3,N/A,,Clear,270,2013-05-20 23:15:00
6:35 PM,87.8,14.0,6,29.75,10.0,West,23.0,28.8,N/A,,Clear,270,2013-05-20 23:35:00
6:55 PM,85.1,12.4,7,29.74,10.0,West,15.0,27.6,N/A,,Clear,280,2013-05-20 23:55:00
7:15 PM,84.0,12.6,7,29.75,10.0,WNW,18.4,24.2,N/A,,Clear,300,2013-05-21 00:15:00
7:35 PM,83.3,11.7,7,29.75,10.0,WNW,15.0,25.3,N/A,,Clear,300,2013-05-21 00:35:00
7:55 PM,82.4,11.1,7,29.75,10.0,NW,13.8,19.6,N/A,,Clear,310,2013-05-21 00:55:00
8:15 PM,80.2,12.4,8,29.76,10.0,NW,9.2,-,N/A,,Clear,320,2013-05-21 01:15:00
8:35 PM,77.5,12.9,9,29.76,10.0,NW,9.2,-,N/A,,Clear,320,2013-05-21 01:35:00
9:15 PM,75.2,16.9,11,29.78,10.0,NNW,6.9,-,N/A,,Clear,340,2013-05-21 02:15:00
9:35 PM,72.3,15.4,11,29.78,10.0,North,4.6,-,N/A,,Clear,350,2013-05-21 02:35:00
9:55 PM,70.0,15.4,12,29.79,10.0,North,5.8,-,N/A,,Clear,360,2013-05-21 02:55:00
10:15 PM,70.0,15.3,12,29.79,10.0,NNE,5.8,-,N/A,,Clear,20,2013-05-21 03:15:00
10:35 PM,67.5,14.5,13,29.79,10.0,NE,6.9,-,N/A,,Clear,40,2013-05-21 03:35:00
10:55 PM,65.1,12.9,13,29.80,10.0,North,8.1,-,N/A,,Clear,10,2013-05-21 03:55:00
11:15 PM,70.0,22.1,16,29.81,10.0,NE,15.0,-,N/A,,Clear,50,2013-05-21 04:15:00
11:35 PM,70.0,34.9,28,29.81,10.0,ENE,18.4,23.0,N/A,,Clear,60,2013-05-21 04:35:00
11:55 PM,70.0,37.4,30,29.82,10.0,ENE,19.6,24.2,N/A,,Clear,60,2013-05-21 04:55:00